contact:dominique.lefevre@mio.osupytheas.fr, maurice.libes@osupytheas.fr, didier.mallarino@osupytheas.fr
Project:EMSO http://www.emso-fr.org/EMSO-France
Depth: 2436.0 m
Title:EMSO Ligure Ouest : Data MII capteur AQUADOPP
Date,Latitude,Longitude,X_East,Y_North,Z_Up,Amplitude_X,Amplitude_Y,Amplitude_Z,Batterie,SoundSpeed,Heading,Pitch,Roll,Pressure,TIS,Speed,Direction
, degrees North, degrees East, m.s-1, m.s-1,m.s-1, 1, 1, 1, Volt, m.s-1, degree, degree, degree, dbar, degree_C, m.s-1, degree
2020-10-04T00:04:03,42.805,6.029,-0.044,0.007,-0.023,103.0,110.0,102.0,13.4,1505.3,324.3,-0.7,1.8,2470.368,13.31,0.044,279.0
2020-10-04T00:07:03,42.805,6.029,-0.034,0.002,-0.004,103.0,112.0,101.0,13.3,1505.3,326.6,-0.7,1.8,2470.38,13.32,0.034,273.4
2020-10-04T00:10:03,42.805,6.029,-0.045,0.002,-0.008,103.0,111.0,101.0,13.3,1505.3,327.7,-0.7,1.8,2470.362,13.32,0.045,272.5
2020-10-04T00:13:03,42.805,6.029,-0.048,-0.001,-0.001,103.0,112.0,101.0,13.4,1505.3,325.4,-0.7,1.9,2470.376,13.33,0.048,268.8
2020-10-04T00:16:03,42.805,6.029,-0.022,0.017,0.007,103.0,111.0,102.0,13.4,1505.3,325.4,-0.7,1.8,2470.393,13.33,0.027,307.7
2020-10-04T00:19:03,42.805,6.029,-0.061,0.0,-0.008,102.0,110.0,102.0,13.3,1505.3,325.3,-0.7,1.8,2470.368,13.33,0.06,270.0
2020-10-04T00:22:03,42.805,6.029,-0.046,0.014,-0.025,105.0,109.0,101.0,13.4,1505.3,324.2,-0.7,1.8,2470.347,13.33,0.048,286.9
2020-10-04T00:25:03,42.805,6.029,-0.039,0.006,-0.005,104.0,112.0,101.0,13.4,1505.3,327.9,-0.7,1.8,2470.389,13.33,0.039,278.7
2020-10-04T00:28:03,42.805,6.029,-0.034,-0.004,0.0,104.0,109.0,101.0,13.3,1505.3,323.7,-0.7,1.8,2470.371,13.33,0.034,263.3
2020-10-04T00:31:03,42.805,6.029,-0.058,0.012,0.0,103.0,111.0,102.0,13.4,1505.3,326.5,-0.7,1.8,2470.356,13.33,0.059,281.7
2020-10-04T00:34:03,42.805,6.029,-0.025,0.008,-0.002,103.0,111.0,101.0,13.3,1505.3,324.8,-0.7,1.8,2470.295,13.33,0.026,287.7
2020-10-04T00:37:03,42.805,6.029,-0.03,0.023,0.032,103.0,112.0,101.0,13.3,1505.3,326.8,-0.7,1.8,2470.327,13.33,0.037,307.5
2020-10-04T00:40:03,42.805,6.029,-0.04,0.004,0.001,103.0,111.0,101.0,13.4,1505.4,326.5,-0.7,1.8,2470.336,13.34,0.04,275.7
2020-10-04T00:43:03,42.805,6.029,-0.032,0.011,-0.008,103.0,109.0,100.0,13.3,1505.4,325.6,-0.7,1.8,2470.353,13.34,0.033,289.0
2020-10-04T00:46:03,42.805,6.029,-0.024,0.015,0.011,103.0,113.0,103.0,13.3,1505.4,326.5,-0.7,1.8,2470.329,13.34,0.028,302.0
2020-10-04T00:49:03,42.805,6.029,-0.018,0.018,0.008,104.0,109.0,102.0,13.4,1505.4,323.0,-0.7,1.8,2470.338,13.34,0.025,315.0
2020-10-04T00:52:03,42.805,6.029,-0.054,-0.002,-0.019,104.0,109.0,102.0,13.3,1505.4,326.7,-0.7,1.8,2470.28,13.34,0.054,267.9
2020-10-04T00:55:03,42.805,6.029,-0.02,0.018,-0.011,102.0,109.0,102.0,13.4,1505.4,325.5,-0.7,1.8,2470.304,13.34,0.026,312.0
2020-10-04T00:58:03,42.805,6.029,-0.024,0.0,-0.013,104.0,110.0,101.0,13.3,1505.3,325.2,-0.7,1.9,2470.306,13.33,0.024,270.0
2020-10-04T01:04:03,42.805,6.029,0.001,-0.022,-0.033,104.0,108.0,102.0,13.4,1505.3,324.3,-0.7,1.8,2470.34,13.31,0.022,177.4
2020-10-04T01:07:03,42.805,6.029,-0.031,0.015,0.013,103.0,109.0,103.0,13.4,1505.3,324.6,-0.7,1.8,2470.39,13.32,0.034,295.8
2020-10-04T01:10:03,42.805,6.029,-0.017,0.002,0.007,103.0,108.0,102.0,13.4,1505.3,328.4,-0.7,1.8,2470.382,13.32,0.017,276.7
2020-10-04T01:13:03,42.805,6.029,-0.004,-0.012,0.016,102.0,108.0,102.0,13.4,1505.3,322.6,-0.7,1.8,2470.365,13.33,0.012,198.4
2020-10-04T01:16:03,42.805,6.029,-0.041,0.015,0.008,104.0,108.0,100.0,13.3,1505.3,324.4,-0.7,1.8,2470.283,13.33,0.043,290.1
2020-10-04T01:19:03,42.805,6.029,-0.002,0.01,0.028,102.0,109.0,101.0,13.3,1505.3,324.7,-0.7,1.8,2470.298,13.33,0.01,348.7
2020-10-04T01:22:03,42.805,6.029,-0.039,0.006,-0.004,101.0,110.0,100.0,13.4,1505.3,326.3,-0.7,1.9,2470.327,13.33,0.039,278.7
2020-10-04T01:25:03,42.805,6.029,-0.033,0.027,-0.01,102.0,107.0,101.0,13.3,1505.3,326.4,-0.7,1.8,2470.327,13.33,0.042,309.3
2020-10-04T01:28:03,42.805,6.029,-0.019,0.016,0.0,103.0,107.0,102.0,13.3,1505.3,324.3,-0.7,1.8,2470.325,13.33,0.024,310.1
2020-10-04T01:31:03,42.805,6.029,-0.032,0.009,0.002,103.0,107.0,100.0,13.3,1505.3,323.4,-0.7,1.8,2470.336,13.33,0.033,285.7
2020-10-04T01:34:03,42.805,6.029,0.013,0.005,0.006,104.0,109.0,101.0,13.3,1505.3,324.8,-0.7,1.9,2470.305,13.33,0.013,69.0
2020-10-04T01:37:03,42.805,6.029,-0.036,0.018,0.023,103.0,111.0,99.0,13.4,1505.3,324.8,-0.7,1.9,2470.34,13.33,0.04,296.6
2020-10-04T01:40:03,42.805,6.029,-0.034,0.017,0.016,103.0,108.0,100.0,13.4,1505.3,324.4,-0.8,1.8,2470.301,13.33,0.038,296.6
2020-10-04T01:43:03,42.805,6.029,-0.005,0.03,0.025,103.0,109.0,101.0,13.4,1505.3,324.3,-0.7,1.8,2470.307,13.33,0.03,350.5
2020-10-04T01:46:03,42.805,6.029,-0.021,0.017,-0.011,103.0,110.0,100.0,13.4,1505.3,325.0,-0.7,1.8,2470.287,13.33,0.027,309.0
2020-10-04T01:49:03,42.805,6.029,-0.025,0.027,-0.008,102.0,108.0,101.0,13.4,1505.3,325.6,-0.7,1.8,2470.306,13.33,0.036,317.2
2020-10-04T01:52:03,42.805,6.029,-0.008,0.027,0.002,104.0,109.0,100.0,13.3,1505.3,324.5,-0.7,1.8,2470.351,13.33,0.028,343.5
2020-10-04T01:55:03,42.805,6.029,0.009,-0.003,0.002,103.0,107.0,101.0,13.3,1505.3,325.1,-0.7,1.8,2470.284,13.33,0.009,108.4
2020-10-04T01:58:03,42.805,6.029,-0.01,0.024,-0.001,101.0,111.0,101.0,13.4,1505.3,324.5,-0.7,1.8,2470.327,13.33,0.026,337.4
2020-10-04T02:04:03,42.805,6.029,-0.021,0.014,0.023,103.0,107.0,101.0,13.4,1505.3,324.7,-0.7,1.8,2470.315,13.31,0.025,303.7
2020-10-04T02:07:03,42.805,6.029,-0.014,0.0,0.039,102.0,109.0,101.0,13.3,1505.3,324.5,-0.7,1.8,2470.329,13.32,0.014,270.0
2020-10-04T02:10:03,42.805,6.029,0.0,0.017,0.02,103.0,108.0,100.0,13.4,1505.3,326.5,-0.7,1.8,2470.335,13.32,0.017,0.0
2020-10-04T02:13:03,42.805,6.029,-0.002,0.019,-0.003,104.0,107.0,101.0,13.4,1505.3,326.3,-0.7,1.9,2470.325,13.33,0.019,354.0
2020-10-04T02:16:03,42.805,6.029,0.001,0.03,0.058,101.0,107.0,102.0,13.3,1505.3,324.2,-0.7,1.8,2470.315,13.33,0.03,1.9
2020-10-04T02:19:03,42.805,6.029,0.01,0.018,0.026,104.0,107.0,100.0,13.4,1505.3,322.8,-0.7,1.8,2470.307,13.33,0.02,29.1
2020-10-04T02:22:03,42.805,6.029,-0.029,0.027,0.036,102.0,108.0,101.0,13.4,1505.3,326.0,-0.7,1.8,2470.331,13.33,0.039,313.0
2020-10-04T02:25:03,42.805,6.029,-0.036,0.002,0.013,101.0,108.0,101.0,13.3,1505.3,324.8,-0.7,1.8,2470.341,13.33,0.036,273.2
2020-10-04T02:28:03,42.805,6.029,0.011,0.013,0.013,103.0,108.0,101.0,13.4,1505.3,323.2,-0.7,1.8,2470.338,13.33,0.017,40.2
2020-10-04T02:31:03,42.805,6.029,-0.001,0.035,0.028,102.0,109.0,100.0,13.3,1505.3,328.2,-0.7,1.8,2470.314,13.33,0.035,358.4
2020-10-04T02:34:03,42.805,6.029,0.007,0.026,0.041,103.0,105.0,101.0,13.4,1505.3,325.7,-0.7,1.8,2470.287,13.33,0.026,15.1
2020-10-04T02:37:03,42.805,6.029,0.02,-0.002,0.0,103.0,106.0,102.0,13.4,1505.3,327.8,-0.7,1.8,2470.291,13.33,0.02,95.7
2020-10-04T02:40:03,42.805,6.029,0.016,0.021,0.046,102.0,107.0,101.0,13.4,1505.3,326.6,-0.7,1.9,2470.301,13.33,0.026,37.3
2020-10-04T02:43:03,42.805,6.029,-0.001,0.0,0.036,105.0,108.0,101.0,13.4,1505.3,328.2,-0.7,1.8,2470.288,13.33,0.001,270.0
2020-10-04T02:46:03,42.805,6.029,0.018,0.018,0.035,103.0,107.0,102.0,13.4,1505.3,326.2,-0.7,1.8,2470.264,13.33,0.025,45.0
2020-10-04T02:49:03,42.805,6.029,0.004,0.029,0.036,103.0,107.0,101.0,13.4,1505.3,328.1,-0.7,1.9,2470.286,13.33,0.029,7.8
2020-10-04T02:52:03,42.805,6.029,0.0,0.029,0.034,102.0,109.0,100.0,13.4,1505.3,325.3,-0.7,1.8,2470.314,13.33,0.028,0.0
2020-10-04T02:55:03,42.805,6.029,-0.011,0.014,0.03,102.0,111.0,100.0,13.4,1505.3,325.4,-0.7,1.9,2470.309,13.33,0.017,321.8
2020-10-04T02:58:03,42.805,6.029,-0.037,0.002,-0.008,103.0,107.0,101.0,13.3,1505.3,323.4,-0.7,1.8,2470.274,13.33,0.037,273.1
2020-10-04T03:04:03,42.805,6.029,-0.017,0.03,0.015,104.0,108.0,100.0,13.4,1505.3,324.2,-0.8,1.8,2470.338,13.31,0.034,330.5
2020-10-04T03:07:03,42.805,6.029,-0.011,0.003,-0.03,102.0,111.0,100.0,13.4,1505.3,325.7,-0.7,1.8,2470.316,13.32,0.011,285.3
2020-10-04T03:10:03,42.805,6.029,-0.006,0.02,0.009,102.0,111.0,100.0,13.3,1505.3,326.6,-0.7,1.8,2470.325,13.32,0.02,343.3
2020-10-04T03:13:03,42.805,6.029,-0.036,0.012,0.004,103.0,108.0,101.0,13.4,1505.3,326.3,-0.7,1.8,2470.321,13.33,0.037,288.4
2020-10-04T03:16:03,42.805,6.029,-0.014,0.0,-0.009,102.0,109.0,101.0,13.4,1505.3,325.2,-0.7,1.8,2470.308,13.33,0.014,270.0
2020-10-04T03:19:03,42.805,6.029,0.0,0.013,0.027,101.0,108.0,101.0,13.4,1505.3,326.3,-0.7,1.8,2470.302,13.33,0.013,0.0
2020-10-04T03:22:03,42.805,6.029,-0.02,0.024,-0.013,103.0,110.0,101.0,13.4,1505.3,323.4,-0.7,1.9,2470.311,13.33,0.031,320.2
2020-10-04T03:25:03,42.805,6.029,-0.033,0.002,-0.013,104.0,110.0,102.0,13.4,1505.3,326.5,-0.7,1.8,2470.267,13.33,0.033,273.5
2020-10-04T03:28:03,42.805,6.029,-0.031,0.029,-0.005,102.0,111.0,101.0,13.4,1505.3,327.7,-0.7,1.8,2470.283,13.33,0.042,313.1
2020-10-04T03:31:03,42.805,6.029,-0.015,0.03,0.029,103.0,109.0,100.0,13.4,1505.3,324.9,-0.7,1.8,2470.281,13.33,0.033,333.4
2020-10-04T03:34:03,42.805,6.029,0.0,0.018,0.033,103.0,110.0,100.0,13.3,1505.3,323.8,-0.7,1.8,2470.267,13.33,0.018,0.0
2020-10-04T03:37:03,42.805,6.029,-0.01,0.013,0.041,102.0,109.0,100.0,13.4,1505.3,324.4,-0.7,1.8,2470.316,13.33,0.016,322.4
2020-10-04T03:40:03,42.805,6.029,0.005,0.007,-0.004,102.0,110.0,100.0,13.4,1505.3,323.5,-0.7,1.8,2470.318,13.33,0.008,35.5
2020-10-04T03:43:03,42.805,6.029,-0.016,0.0,-0.017,102.0,107.0,102.0,13.4,1505.4,325.4,-0.7,1.8,2470.33,13.34,0.016,270.0
2020-10-04T03:46:03,42.805,6.029,-0.029,0.016,-0.029,102.0,110.0,100.0,13.4,1505.4,326.2,-0.7,1.8,2470.287,13.34,0.033,298.9
2020-10-04T03:49:03,42.805,6.029,-0.021,0.016,-0.004,100.0,111.0,102.0,13.4,1505.3,324.7,-0.7,1.8,2470.312,13.33,0.026,307.3
2020-10-04T03:52:03,42.805,6.029,-0.01,0.005,-0.02,102.0,110.0,100.0,13.4,1505.3,326.3,-0.7,1.8,2470.296,13.33,0.011,296.6
2020-10-04T03:55:03,42.805,6.029,-0.017,-0.007,0.0,101.0,109.0,102.0,13.4,1505.3,324.0,-0.7,1.8,2470.292,13.33,0.018,247.6
2020-10-04T03:58:03,42.805,6.029,-0.027,0.006,0.014,104.0,111.0,100.0,13.4,1505.3,326.3,-0.7,1.8,2470.321,13.33,0.027,282.5
2020-10-04T04:04:03,42.805,6.029,-0.02,0.014,0.009,102.0,109.0,101.0,13.3,1505.3,326.3,-0.7,1.8,2470.337,13.31,0.024,305.0
2020-10-04T04:07:03,42.805,6.029,-0.008,-0.005,0.006,102.0,111.0,100.0,13.4,1505.3,326.7,-0.7,1.9,2470.319,13.32,0.009,238.0
2020-10-04T04:10:03,42.805,6.029,-0.022,-0.001,-0.005,101.0,108.0,101.0,13.4,1505.3,324.6,-0.7,1.8,2470.333,13.33,0.022,267.4
2020-10-04T04:13:03,42.805,6.029,-0.017,0.026,0.0,103.0,110.0,100.0,13.4,1505.3,325.9,-0.7,1.8,2470.328,13.33,0.031,326.8
2020-10-04T04:16:03,42.805,6.029,0.002,0.0,0.002,102.0,113.0,100.0,13.4,1505.3,325.7,-0.7,1.8,2470.334,13.33,0.002,90.0
2020-10-04T04:19:03,42.805,6.029,-0.021,0.006,-0.017,102.0,110.0,101.0,13.4,1505.3,326.8,-0.7,1.8,2470.305,13.33,0.021,285.9
2020-10-04T04:22:03,42.805,6.029,-0.038,0.001,-0.012,102.0,112.0,101.0,13.3,1505.3,325.7,-0.7,1.8,2470.367,13.33,0.038,271.5
2020-10-04T04:25:03,42.805,6.029,-0.005,-0.029,-0.022,102.0,109.0,100.0,13.4,1505.3,326.2,-0.7,1.8,2470.34,13.33,0.029,189.8
2020-10-04T04:28:03,42.805,6.029,0.0,0.005,-0.012,101.0,110.0,101.0,13.4,1505.3,326.3,-0.7,1.8,2470.297,13.33,0.005,0.0
2020-10-04T04:31:03,42.805,6.029,0.007,0.005,0.02,105.0,108.0,102.0,13.4,1505.4,326.3,-0.7,1.8,2470.315,13.34,0.008,54.5
2020-10-04T04:34:03,42.805,6.029,0.007,0.004,0.012,102.0,111.0,101.0,13.3,1505.4,325.9,-0.7,1.8,2470.349,13.34,0.008,60.3
2020-10-04T04:37:03,42.805,6.029,-0.021,0.009,-0.016,100.0,109.0,102.0,13.3,1505.3,325.7,-0.7,1.8,2470.318,13.33,0.022,293.2
2020-10-04T04:40:03,42.805,6.029,-0.032,-0.004,-0.023,102.0,112.0,100.0,13.4,1505.3,325.9,-0.7,1.8,2470.329,13.33,0.032,262.9
2020-10-04T04:43:03,42.805,6.029,-0.005,0.004,0.009,102.0,110.0,102.0,13.4,1505.3,326.8,-0.7,1.8,2470.352,13.33,0.006,308.7
2020-10-04T04:46:03,42.805,6.029,-0.01,-0.004,0.007,102.0,108.0,101.0,13.4,1505.3,324.1,-0.7,1.8,2470.351,13.33,0.01,248.2
2020-10-04T04:49:03,42.805,6.029,-0.006,0.005,-0.007,103.0,109.0,101.0,13.3,1505.3,325.4,-0.7,1.8,2470.32,13.33,0.007,309.8
2020-10-04T04:52:03,42.805,6.029,-0.013,-0.004,-0.007,103.0,109.0,101.0,13.4,1505.3,325.2,-0.7,1.8,2470.316,13.33,0.013,252.9
2020-10-04T04:55:03,42.805,6.029,0.008,-0.004,0.0,103.0,110.0,100.0,13.3,1505.3,325.1,-0.7,1.8,2470.332,13.33,0.008,116.6
2020-10-04T04:58:03,42.805,6.029,-0.008,0.007,-0.017,103.0,109.0,100.0,13.4,1505.3,326.1,-0.7,1.8,2470.387,13.33,0.01,311.2
2020-10-04T05:04:03,42.805,6.029,-0.019,-0.004,-0.016,102.0,108.0,101.0,13.4,1505.3,324.9,-0.7,1.8,2470.411,13.31,0.019,258.1
2020-10-04T05:07:03,42.805,6.029,-0.036,-0.013,-0.033,103.0,108.0,102.0,13.3,1505.3,325.5,-0.7,1.8,2470.415,13.32,0.038,250.1
2020-10-04T05:10:03,42.805,6.029,-0.029,-0.014,-0.035,103.0,107.0,101.0,13.4,1505.3,326.8,-0.7,1.8,2470.351,13.32,0.032,244.2
2020-10-04T05:13:03,42.805,6.029,-0.026,-0.005,-0.013,103.0,107.0,101.0,13.4,1505.3,326.4,-0.7,1.8,2470.326,13.32,0.026,259.1
2020-10-04T05:16:03,42.805,6.029,-0.004,0.005,-0.015,105.0,109.0,100.0,13.3,1505.3,326.7,-0.7,1.8,2470.362,13.33,0.006,321.3
2020-10-04T05:19:03,42.805,6.029,0.027,0.02,0.02,103.0,109.0,102.0,13.4,1505.3,326.8,-0.7,1.9,2470.304,13.33,0.033,53.5
2020-10-04T05:22:03,42.805,6.029,0.023,-0.001,0.026,104.0,108.0,100.0,13.4,1505.3,326.4,-0.7,1.9,2470.384,13.33,0.023,92.5
2020-10-04T05:25:03,42.805,6.029,0.008,0.009,0.014,103.0,107.0,102.0,13.4,1505.3,322.8,-0.7,1.8,2470.345,13.33,0.012,41.6
2020-10-04T05:28:03,42.805,6.029,-0.005,0.006,0.006,104.0,107.0,100.0,13.4,1505.3,326.5,-0.7,1.8,2470.371,13.33,0.007,320.2
2020-10-04T05:31:03,42.805,6.029,0.009,-0.008,-0.006,104.0,106.0,100.0,13.3,1505.3,328.0,-0.7,1.8,2470.389,13.33,0.012,131.6
2020-10-04T05:34:03,42.805,6.029,-0.012,-0.003,-0.02,101.0,109.0,101.0,13.4,1505.3,327.1,-0.7,1.8,2470.421,13.33,0.012,256.0
2020-10-04T05:37:03,42.805,6.029,-0.022,-0.021,-0.03,102.0,106.0,101.0,13.4,1505.3,324.5,-0.7,1.9,2470.385,13.33,0.03,226.3
2020-10-04T05:40:03,42.805,6.029,-0.018,-0.011,-0.015,102.0,106.0,101.0,13.4,1505.3,327.0,-0.7,1.8,2470.431,13.33,0.021,238.6
2020-10-04T05:43:03,42.805,6.029,0.007,-0.024,0.03,103.0,107.0,101.0,13.3,1505.3,323.0,-0.7,1.8,2470.411,13.33,0.025,163.7
2020-10-04T05:46:03,42.805,6.029,0.001,-0.036,0.003,102.0,106.0,101.0,13.4,1505.3,325.2,-0.7,1.8,2470.405,13.33,0.036,178.4
2020-10-04T05:49:03,42.805,6.029,0.001,-0.028,-0.02,101.0,106.0,102.0,13.4,1505.3,324.2,-0.7,1.8,2470.406,13.33,0.028,178.0
2020-10-04T05:52:03,42.805,6.029,-0.061,0.002,-0.054,102.0,106.0,101.0,13.3,1505.3,327.7,-0.7,1.8,2470.392,13.33,0.061,271.9
2020-10-04T05:55:03,42.805,6.029,-0.003,-0.028,0.003,102.0,106.0,101.0,13.4,1505.3,325.0,-0.7,1.9,2470.37,13.33,0.028,186.1
2020-10-04T05:58:03,42.805,6.029,0.032,-0.017,0.026,102.0,105.0,100.0,13.4,1505.3,326.9,-0.7,1.8,2470.403,13.33,0.036,118.0
2020-10-04T06:04:03,42.805,6.029,-0.011,-0.017,0.002,103.0,105.0,100.0,13.3,1505.3,327.0,-0.7,1.8,2470.447,13.31,0.02,212.9
2020-10-04T06:07:03,42.805,6.029,0.01,-0.022,0.01,102.0,105.0,101.0,13.4,1505.3,326.3,-0.7,1.8,2470.453,13.31,0.024,155.6
2020-10-04T06:10:03,42.805,6.029,0.036,-0.025,0.014,102.0,107.0,100.0,13.4,1505.3,326.8,-0.7,1.8,2470.422,13.32,0.043,124.8
2020-10-04T06:13:03,42.805,6.029,0.007,-0.001,0.004,102.0,109.0,101.0,13.4,1505.3,325.0,-0.7,1.8,2470.485,13.32,0.007,98.1
2020-10-04T06:16:03,42.805,6.029,0.02,-0.022,0.036,102.0,108.0,100.0,13.3,1505.3,326.4,-0.7,1.9,2470.429,13.32,0.029,137.7
2020-10-04T06:19:03,42.805,6.029,0.04,-0.023,0.045,102.0,107.0,101.0,13.4,1505.3,324.5,-0.7,1.8,2470.438,13.33,0.046,119.9
2020-10-04T06:22:03,42.805,6.029,0.007,-0.025,-0.025,102.0,105.0,101.0,13.4,1505.3,325.2,-0.7,1.8,2470.439,13.33,0.025,164.4
2020-10-04T06:25:03,42.805,6.029,-0.006,-0.016,-0.007,103.0,106.0,100.0,13.4,1505.3,326.7,-0.7,1.8,2470.422,13.33,0.017,200.6
2020-10-04T06:28:03,42.805,6.029,-0.01,-0.015,-0.005,103.0,105.0,100.0,13.4,1505.3,326.7,-0.7,1.8,2470.433,13.33,0.018,213.7
2020-10-04T06:31:03,42.805,6.029,0.011,-0.008,0.03,102.0,106.0,101.0,13.4,1505.3,326.4,-0.7,1.9,2470.448,13.33,0.013,126.0
2020-10-04T06:34:03,42.805,6.029,0.048,-0.013,0.039,102.0,107.0,101.0,13.4,1505.3,325.7,-0.7,1.8,2470.416,13.33,0.049,105.2
2020-10-04T06:37:03,42.805,6.029,0.035,0.0,0.041,103.0,105.0,100.0,13.3,1505.3,323.2,-0.7,1.8,2470.418,13.33,0.035,90.0
2020-10-04T06:40:03,42.805,6.029,0.007,-0.033,0.013,102.0,105.0,101.0,13.4,1505.3,326.2,-0.7,1.8,2470.424,13.33,0.033,168.0
2020-10-04T06:43:03,42.805,6.029,-0.022,-0.022,-0.021,105.0,106.0,101.0,13.4,1505.3,326.2,-0.7,1.8,2470.462,13.33,0.031,225.0
2020-10-04T06:46:03,42.805,6.029,-0.021,-0.014,-0.019,102.0,106.0,101.0,13.4,1505.3,326.0,-0.7,1.8,2470.449,13.33,0.025,236.3
2020-10-04T06:49:03,42.805,6.029,0.009,-0.041,0.007,103.0,106.0,102.0,13.4,1505.3,325.7,-0.8,1.9,2470.419,13.33,0.041,167.6
2020-10-04T06:52:03,42.805,6.029,0.031,-0.023,0.008,103.0,107.0,101.0,13.4,1505.3,326.1,-0.7,1.9,2470.465,13.33,0.038,126.6
2020-10-04T06:55:03,42.805,6.029,0.043,-0.026,0.019,103.0,105.0,103.0,13.4,1505.3,326.0,-0.7,1.8,2470.453,13.33,0.05,121.2
2020-10-04T06:58:03,42.805,6.029,0.006,-0.033,-0.029,102.0,105.0,101.0,13.4,1505.3,324.9,-0.7,1.8,2470.466,13.33,0.033,169.7
2020-10-04T07:04:03,42.805,6.029,0.0,-0.033,0.007,102.0,107.0,100.0,13.4,1505.3,326.3,-0.8,1.8,2470.507,13.31,0.033,180.0
2020-10-04T07:07:03,42.805,6.029,-0.007,-0.023,0.008,103.0,106.0,101.0,13.3,1505.3,325.7,-0.7,1.8,2470.506,13.31,0.024,196.9
2020-10-04T07:10:03,42.805,6.029,0.002,-0.023,-0.021,104.0,106.0,101.0,13.4,1505.3,327.7,-0.7,1.8,2470.458,13.32,0.023,175.0
2020-10-04T07:13:03,42.805,6.029,0.015,-0.042,-0.022,105.0,107.0,102.0,13.4,1505.3,326.5,-0.7,1.8,2470.489,13.32,0.044,160.4
2020-10-04T07:16:03,42.805,6.029,-0.007,0.002,-0.011,103.0,106.0,102.0,13.4,1505.3,326.2,-0.7,1.8,2470.467,13.32,0.007,285.9
2020-10-04T07:19:03,42.805,6.029,0.022,-0.037,-0.008,104.0,105.0,101.0,13.4,1505.3,326.1,-0.7,1.9,2470.501,13.33,0.043,149.3
2020-10-04T07:22:03,42.805,6.029,0.014,-0.021,-0.021,101.0,107.0,103.0,13.4,1505.3,326.4,-0.7,1.8,2470.478,13.33,0.025,146.3
2020-10-04T07:25:03,42.805,6.029,-0.007,-0.047,-0.009,105.0,107.0,101.0,13.4,1505.3,326.3,-0.7,1.8,2470.51,13.33,0.047,188.5
2020-10-04T07:28:03,42.805,6.029,-0.018,-0.014,-0.019,102.0,108.0,101.0,13.3,1505.3,326.5,-0.7,1.8,2470.499,13.33,0.022,232.1
2020-10-04T07:31:03,42.805,6.029,-0.027,-0.021,-0.032,103.0,105.0,100.0,13.4,1505.3,326.1,-0.7,1.8,2470.471,13.33,0.034,232.1
2020-10-04T07:34:03,42.805,6.029,-0.005,-0.022,-0.027,100.0,108.0,103.0,13.4,1505.3,324.1,-0.7,1.8,2470.447,13.33,0.022,192.8
2020-10-04T07:37:03,42.805,6.029,0.019,-0.03,-0.001,103.0,105.0,103.0,13.4,1505.3,324.8,-0.7,1.8,2470.471,13.33,0.035,147.7
2020-10-04T07:40:03,42.805,6.029,0.024,-0.02,0.014,105.0,105.0,101.0,13.4,1505.3,326.1,-0.7,1.8,2470.447,13.33,0.031,129.8
2020-10-04T07:43:03,42.805,6.029,0.007,-0.009,0.027,103.0,106.0,101.0,13.3,1505.3,326.6,-0.7,1.8,2470.462,13.33,0.011,142.1
2020-10-04T07:49:03,42.805,6.029,0.024,-0.028,0.018,104.0,106.0,102.0,13.4,1505.3,322.9,-0.7,1.8,2470.504,13.31,0.036,139.4
2020-10-04T07:52:03,42.805,6.029,0.003,-0.024,0.019,104.0,105.0,101.0,13.4,1505.3,323.4,-0.7,1.8,2470.494,13.31,0.024,172.9
2020-10-04T07:55:03,42.805,6.029,0.025,-0.028,0.0,104.0,105.0,102.0,13.4,1505.3,326.5,-0.7,1.8,2470.498,13.32,0.037,138.2
2020-10-04T07:58:03,42.805,6.029,0.006,-0.042,0.003,103.0,105.0,103.0,13.4,1505.3,327.3,-0.7,1.8,2470.518,13.32,0.042,171.9
2020-10-04T08:04:03,42.805,6.029,-0.033,-0.032,-0.052,104.0,105.0,101.0,13.4,1505.2,324.4,-0.8,1.8,2470.53,13.3,0.045,225.9
2020-10-04T08:07:03,42.805,6.029,-0.011,-0.038,0.005,103.0,104.0,101.0,13.4,1505.3,324.4,-0.7,1.9,2470.546,13.31,0.039,196.1
2020-10-04T08:10:03,42.805,6.029,-0.007,-0.029,0.002,104.0,104.0,101.0,13.4,1505.3,323.4,-0.7,1.8,2470.533,13.32,0.029,193.6
2020-10-04T08:13:03,42.805,6.029,0.017,-0.04,0.007,103.0,105.0,101.0,13.4,1505.3,328.2,-0.7,1.8,2470.567,13.32,0.043,157.0
2020-10-04T08:16:03,42.805,6.029,-0.015,-0.038,0.004,104.0,106.0,102.0,13.4,1505.3,327.8,-0.7,1.9,2470.47,13.32,0.04,201.5
2020-10-04T08:19:03,42.805,6.029,-0.007,-0.038,-0.041,105.0,107.0,101.0,13.4,1505.3,327.4,-0.7,1.8,2470.487,13.32,0.038,190.4
2020-10-04T08:22:03,42.805,6.029,-0.017,-0.048,-0.037,102.0,107.0,102.0,13.4,1505.3,323.8,-0.7,1.8,2470.507,13.32,0.05,199.5
2020-10-04T08:25:03,42.805,6.029,-0.009,-0.047,-0.007,104.0,106.0,102.0,13.3,1505.3,322.8,-0.7,1.8,2470.521,13.32,0.047,190.8
2020-10-04T08:28:03,42.805,6.029,-0.024,-0.018,-0.043,104.0,104.0,101.0,13.4,1505.3,323.5,-0.7,1.8,2470.469,13.32,0.03,233.1
2020-10-04T08:31:03,42.805,6.029,0.003,-0.044,0.001,103.0,105.0,101.0,13.3,1505.3,323.1,-0.7,1.9,2470.467,13.32,0.044,176.1
2020-10-04T08:34:03,42.805,6.029,0.003,-0.057,-0.006,103.0,105.0,102.0,13.4,1505.3,325.8,-0.8,1.8,2470.493,13.32,0.057,177.0
2020-10-04T08:37:03,42.805,6.029,-0.001,-0.035,0.006,103.0,105.0,102.0,13.4,1505.3,325.5,-0.7,1.8,2470.496,13.32,0.035,181.6
2020-10-04T08:40:03,42.805,6.029,0.024,-0.041,0.003,103.0,106.0,101.0,13.4,1505.3,325.3,-0.7,1.9,2470.492,13.32,0.047,149.7
2020-10-04T08:43:03,42.805,6.029,0.0,-0.04,0.012,103.0,106.0,103.0,13.4,1505.3,324.1,-0.7,1.8,2470.524,13.32,0.04,180.0
2020-10-04T08:46:03,42.805,6.029,-0.013,-0.033,-0.018,102.0,104.0,102.0,13.4,1505.3,323.5,-0.7,1.9,2470.488,13.32,0.035,201.5
2020-10-04T08:49:03,42.805,6.029,-0.019,-0.033,-0.023,103.0,104.0,102.0,13.4,1505.3,326.1,-0.7,1.8,2470.461,13.32,0.038,209.9
2020-10-04T08:52:03,42.805,6.029,0.017,-0.031,0.0,102.0,105.0,102.0,13.4,1505.3,327.9,-0.7,1.8,2470.499,13.32,0.035,151.3
2020-10-04T08:55:03,42.805,6.029,0.008,-0.034,-0.003,103.0,103.0,101.0,13.4,1505.3,324.2,-0.7,1.8,2470.497,13.32,0.034,166.8
2020-10-04T08:58:03,42.805,6.029,-0.014,-0.042,-0.008,103.0,104.0,101.0,13.3,1505.3,326.9,-0.7,1.8,2470.474,13.32,0.044,198.4
2020-10-04T09:04:03,42.805,6.029,0.006,-0.032,-0.003,103.0,104.0,101.0,13.3,1505.2,323.4,-0.7,1.8,2470.52,13.3,0.032,169.4
2020-10-04T09:07:03,42.805,6.029,-0.027,-0.028,-0.044,103.0,104.0,102.0,13.4,1505.3,325.9,-0.7,1.8,2470.532,13.31,0.038,224.0
2020-10-04T09:10:03,42.805,6.029,0.009,-0.025,0.027,102.0,105.0,101.0,13.4,1505.3,326.1,-0.7,1.8,2470.53,13.32,0.026,160.2
2020-10-04T09:13:03,42.805,6.029,0.011,-0.022,0.007,103.0,104.0,102.0,13.4,1505.3,322.8,-0.7,1.8,2470.535,13.32,0.024,153.4
2020-10-04T09:16:03,42.805,6.029,0.014,-0.029,0.035,102.0,105.0,101.0,13.3,1505.3,325.5,-0.7,1.8,2470.525,13.32,0.032,154.2
2020-10-04T09:19:03,42.805,6.029,-0.006,-0.043,-0.002,104.0,104.0,102.0,13.3,1505.3,323.1,-0.7,1.8,2470.489,13.32,0.043,187.9
2020-10-04T09:22:03,42.805,6.029,0.012,-0.053,-0.003,103.0,104.0,102.0,13.4,1505.3,326.8,-0.7,1.8,2470.523,13.33,0.054,167.2
2020-10-04T09:25:03,42.805,6.029,-0.004,-0.035,-0.014,103.0,106.0,101.0,13.4,1505.3,323.6,-0.7,1.8,2470.491,13.33,0.035,186.5
2020-10-04T09:28:03,42.805,6.029,-0.015,-0.031,-0.027,104.0,105.0,101.0,13.3,1505.3,325.5,-0.7,1.8,2470.503,13.33,0.034,205.8
2020-10-04T09:31:03,42.805,6.029,-0.016,-0.044,-0.02,105.0,105.0,101.0,13.3,1505.3,326.6,-0.7,1.9,2470.477,13.33,0.046,200.0
2020-10-04T09:34:03,42.805,6.029,-0.007,-0.028,-0.015,104.0,105.0,101.0,13.3,1505.3,326.1,-0.7,1.8,2470.467,13.33,0.028,194.0
2020-10-04T09:37:03,42.805,6.029,-0.015,-0.036,0.005,103.0,104.0,102.0,13.4,1505.3,324.3,-0.7,1.8,2470.52,13.33,0.039,202.6
2020-10-04T09:40:03,42.805,6.029,-0.01,-0.015,0.005,103.0,104.0,102.0,13.4,1505.3,327.7,-0.7,1.9,2470.492,13.33,0.018,213.7
2020-10-04T09:43:03,42.805,6.029,-0.034,-0.036,-0.032,103.0,104.0,101.0,13.4,1505.3,323.5,-0.7,1.8,2470.481,13.33,0.049,223.4
2020-10-04T09:46:03,42.805,6.029,-0.005,-0.022,-0.029,103.0,105.0,102.0,13.4,1505.3,326.1,-0.7,1.8,2470.464,13.33,0.022,192.8
2020-10-04T09:49:03,42.805,6.029,-0.017,-0.033,-0.016,104.0,104.0,101.0,13.3,1505.3,326.2,-0.7,1.8,2470.486,13.32,0.037,207.3
2020-10-04T09:52:03,42.805,6.029,-0.003,-0.019,0.005,103.0,105.0,101.0,13.3,1505.3,326.5,-0.7,1.8,2470.501,13.33,0.019,189.0
2020-10-04T09:55:03,42.805,6.029,0.003,-0.03,0.009,104.0,105.0,101.0,13.4,1505.3,327.6,-0.7,1.8,2470.453,13.32,0.03,174.3
2020-10-04T09:58:03,42.805,6.029,0.014,-0.01,0.039,104.0,107.0,101.0,13.3,1505.3,323.7,-0.7,1.8,2470.486,13.32,0.017,125.5